Terminal Aerodrome Forecast
Issued by NWS

Home | Current Version | Previous Version | Text Only | Print | Product List | Glossary On
Versions: 1 2 3 4 5 6 7 8 9 10 11 12 13 14 15
000
FTUS45 KRIW 182324
TAFPNA
TAF
KPNA 182324Z 1900/1924 VRB05KT P6SM SCT250
     FM190100 29005KT P6SM BKN110
     FM190900 VRB04KT P6SM BKN060
     FM192000 VRB04KT P6SM VCSH BKN050
      AMD LTD TO CLD VIS AND WIND=

USA.gov is the U.S. government's official web portal to all federal, state and local government web resources and services.